Location: Rowland
(34.5359°N, 79.2929°W)
Time: 16:47:24
(UTC+00:00)

S-56A Canister/Altair - Pass Details

Date: 07 October 2022
Orbit: 638 x 2494 km, 38.9° (Epoch: 06 December)

Event Time Altitude Azimuth Distance (km) Brightness Sun altitude
Exits shadow 09:20:58 35° 292° (WNW) 2,141 9.3 -24.5°
Maximum altitude 09:25:12 82° 17° (NNE) 1,232 8.4 -23.6°
Drops below altitude 10° 09:31:34 10° 105° (ESE) 2,639 11.2 -22.3°
Sets 09:33:42 0° 106° (ESE) 3,415 12.0 -21.9°
